Content
SEND FEEDBACK

Daily
Averages
Monthly
Summary
Turkmenistan

ASHGABAT, TURKMENISTAN


Home > Asia > Turkmenistan
Elevation: 775 feet     Latitude: 37 58N     Longitude: 058 20E

WEATHER
 
SELECT A DAY
Number of Records: 177,527;   Date Range: 3/15/97 - 9/16/14
 
SHARE

PRINT THIS DATA

[ ← Previous Day ]
WEATHER ALMANAC - OCTOBER 5, 2013
[ Next Day → ]
[ °C ]   °F
Weather ElementAverageHighLow
Temperature73.4 °F78.8 °F (3:00 pm)68 °F (6:00 am)
Dewpoint53 °F56 °F (11:00 am)41 °F (1:00 am)
Humidity47.5 %64 % (6:00 am)22 % (2:00 am)
Barometer29.85 in29.94 in (11:00 pm)29.73 in (2:00 am)
Wind Speed12.4 mph17.9 mph (6:00 am)
Weather ElementAverage
Visibility6 mi
Wind DirectionWNW (280 °)

Weather ElementTotal
Precipitation---
Cooling Degree Days8.4 (Base 65)
Growing Degree Days23.4 (Base 50)
Averaged from 29 records on October 5, 2013
WEATHER CONDITIONS BREAKOUT
WIND DIRECTION BREAKOUT
WEATHER BY HOUR - OCTOBER 5, 2013
[ °C ]   °F
Local TimeTemperatureDewpointHumidityBarometerVisibilityWind DirectionWind SpeedGust SpeedPrecipitationEventsConditions
1:00 AM77.0 °F41.0 °F28 %29.74 in6.2 miWest (260°)6.7 mphClear
2:00 AM76.0 °F44.0 °F22 %29.73 in6.0 miWNW (300°)15.7 mph
2:00 AM77.0 °F46.4 °F34 %29.74 inNorthClear
3:00 AM75.2 °F51.8 °F44 %29.77 in4.3 miWNW (290°)13.4 mphClear
4:00 AM71.6 °F55.4 °F57 %29.77 in5.0 miWNW (290°)11.2 mphClear
5:00 AM71.0 °F53.0 °F43 %29.76 in6.0 miWNW (300°)15.7 mph
5:00 AM71.6 °F55.4 °F57 %29.77 in6.2 miWNW (290°)15.7 mphClear
6:00 AM68.0 °F55.4 °F64 %29.80 in6.2 miWNW (300°)17.9 mphClear
7:00 AM68.0 °F55.4 °F64 %29.83 in6.2 miWNW (290°)17.9 mphClear
8:00 AM68.0 °F55.4 °F64 %29.86 in6.2 miWNW (290°)15.7 mphClear
9:00 AM68.0 °F55.4 °F64 %29.86 in6.2 miWNW (290°)15.7 mphClear
10:00 AM71.6 °F55.4 °F57 %29.89 in6.2 miWNW (300°)15.7 mphClear
11:00 AM72.0 °F56.0 °F47 %29.88 in6.0 miWNW (300°)15.7 mph
11:00 AM73.4 °F55.4 °F53 %29.89 in6.2 miWNW (300°)15.7 mphClear
12:00 PM75.2 °F55.4 °F50 %29.89 in6.2 miWNW (300°)13.4 mphClear
2:00 PM77.0 °F55.0 °F35 %29.86 in6.0 miNW (320°)11.2 mph
2:00 PM77.0 °F53.6 °F44 %29.86 in6.2 miWNW (300°)11.2 mphClear
3:00 PM78.8 °F53.6 °F42 %29.86 in6.2 miNW (310°)11.2 mphClear
4:00 PM78.8 °F51.8 °F39 %29.86 in6.2 miWNW (300°)13.4 mphClear
5:00 PM78.0 °F54.0 °F34 %29.86 in6.0 miWNW (300°)11.2 mph
5:00 PM78.8 °F53.6 °F42 %29.86 in6.2 miWNW (300°)11.2 mphClear
6:00 PM77.0 °F53.6 °F44 %29.89 in6.2 miWNW (300°)13.4 mphClear
7:00 PM73.4 °F53.6 °F50 %29.89 in6.2 miWNW (290°)13.4 mphClear
8:00 PM73.0 °F54.0 °F42 %29.90 in6.0 miWest (270°)8.9 mph
8:00 PM73.4 °F53.6 °F50 %29.92 in6.2 miWest (280°)8.9 mphClear
9:00 PM71.6 °F53.6 °F53 %29.92 in6.2 miWest (270°)6.7 mphClear
10:00 PM71.6 °F51.8 °F50 %29.92 in6.2 miWest (260°)6.7 mphClear
11:00 PM68.0 °F54.0 °F51 %29.94 in6.0 miWest (260°)6.7 mph
11:00 PM69.8 °F51.8 °F53 %29.92 in6.2 miWest (260°)6.7 mphClear
Hourly data recorded from UTAA, located miles away from Ashgabat, Turkmenistan







STORIES FROM OUR PARTNERS